Year,Month,Day,Hour,Minute,Value (Times are PST for temperature in C)
2014,04,13,00,00,6.70
2014,04,13,00,01,6.60
2014,04,13,00,02,6.60
2014,04,13,00,03,6.60
2014,04,13,00,04,6.60
2014,04,13,00,05,6.60
2014,04,13,00,06,6.60
2014,04,13,00,07,6.60
2014,04,13,00,08,6.60
2014,04,13,00,09,6.60
2014,04,13,00,10,6.60
2014,04,13,00,11,6.60
2014,04,13,00,12,6.60
2014,04,13,00,13,6.60
2014,04,13,00,14,6.60
2014,04,13,00,15,6.50
2014,04,13,00,16,6.50
2014,04,13,00,17,6.50
2014,04,13,00,18,6.50
2014,04,13,00,19,6.40
2014,04,13,00,20,6.40
2014,04,13,00,21,6.40
2014,04,13,00,22,6.40
2014,04,13,00,23,6.40
2014,04,13,00,24,6.40
2014,04,13,00,25,6.30
2014,04,13,00,26,6.30
2014,04,13,00,27,6.30
2014,04,13,00,28,6.30
2014,04,13,00,29,6.30
2014,04,13,00,30,6.30
2014,04,13,00,31,6.30
2014,04,13,00,32,6.30
2014,04,13,00,33,6.30
2014,04,13,00,34,6.30
2014,04,13,00,35,6.30
2014,04,13,00,36,6.30
2014,04,13,00,37,6.30
2014,04,13,00,38,6.30
2014,04,13,00,39,6.30
2014,04,13,00,40,6.30
2014,04,13,00,41,6.20
2014,04,13,00,42,6.20
2014,04,13,00,43,6.20
2014,04,13,00,44,6.20
2014,04,13,00,45,6.20
2014,04,13,00,46,6.10
2014,04,13,00,47,6.10
2014,04,13,00,48,6.10
2014,04,13,00,49,6.10
2014,04,13,00,50,6.00
2014,04,13,00,51,6.00
2014,04,13,00,52,6.00
2014,04,13,00,53,5.90
2014,04,13,00,54,5.90
2014,04,13,00,55,5.90
2014,04,13,00,56,5.90
2014,04,13,00,57,5.90
2014,04,13,00,58,5.90
2014,04,13,00,59,5.80
2014,04,13,01,00,5.80
2014,04,13,01,01,5.80
2014,04,13,01,02,5.80
2014,04,13,01,03,5.80
2014,04,13,01,04,5.70
2014,04,13,01,05,5.70
2014,04,13,01,06,5.70
2014,04,13,01,07,5.70
2014,04,13,01,08,5.70
2014,04,13,01,09,5.70
2014,04,13,01,10,5.70
2014,04,13,01,11,5.70
2014,04,13,01,12,5.70
2014,04,13,01,13,5.60
2014,04,13,01,14,5.60
2014,04,13,01,15,5.60
2014,04,13,01,16,5.60
2014,04,13,01,17,5.60
2014,04,13,01,18,5.60
2014,04,13,01,19,5.60
2014,04,13,01,20,5.60
2014,04,13,01,21,5.60
2014,04,13,01,22,5.60
2014,04,13,01,23,5.60
2014,04,13,01,24,5.60
2014,04,13,01,25,5.60
2014,04,13,01,26,5.50
2014,04,13,01,27,5.50
2014,04,13,01,28,5.50
2014,04,13,01,29,5.50
2014,04,13,01,30,5.50
2014,04,13,01,31,5.50
2014,04,13,01,32,5.60
2014,04,13,01,33,5.50
2014,04,13,01,34,5.50
2014,04,13,01,35,5.50
2014,04,13,01,36,5.50
2014,04,13,01,37,5.50
2014,04,13,01,38,5.50
2014,04,13,01,39,5.40
2014,04,13,01,40,5.40
2014,04,13,01,41,5.40
2014,04,13,01,42,5.40
2014,04,13,01,43,5.40
2014,04,13,01,44,5.40
2014,04,13,01,45,5.30
2014,04,13,01,46,5.30
2014,04,13,01,47,5.30
2014,04,13,01,48,5.30
2014,04,13,01,49,5.30
2014,04,13,01,50,5.20
2014,04,13,01,51,5.20
2014,04,13,01,52,5.20
2014,04,13,01,53,5.20
2014,04,13,01,54,5.20
2014,04,13,01,55,5.20
2014,04,13,01,56,5.20
2014,04,13,01,57,5.20
2014,04,13,01,58,5.20
2014,04,13,01,59,5.20
2014,04,13,02,00,5.20
2014,04,13,02,01,5.20
2014,04,13,02,02,5.20
2014,04,13,02,03,5.20
2014,04,13,02,04,5.10
2014,04,13,02,05,5.10
2014,04,13,02,06,5.10
2014,04,13,02,07,5.10
2014,04,13,02,08,5.10
2014,04,13,02,09,5.10
2014,04,13,02,10,5.10
2014,04,13,02,11,5.10
2014,04,13,02,12,5.10
2014,04,13,02,13,5.10
2014,04,13,02,14,5.00
2014,04,13,02,15,5.00
2014,04,13,02,16,5.00
2014,04,13,02,17,5.00
2014,04,13,02,18,4.90
2014,04,13,02,19,4.90
2014,04,13,02,20,4.90
2014,04,13,02,21,4.90
2014,04,13,02,22,4.90
2014,04,13,02,23,4.80
2014,04,13,02,24,4.80
2014,04,13,02,25,4.80
2014,04,13,02,26,4.80
2014,04,13,02,27,4.70
2014,04,13,02,28,4.70
2014,04,13,02,29,4.70
2014,04,13,02,30,4.70
2014,04,13,02,31,4.70
2014,04,13,02,32,4.60
2014,04,13,02,33,4.60
2014,04,13,02,34,4.60
2014,04,13,02,35,4.60
2014,04,13,02,36,4.60
2014,04,13,02,37,4.60
2014,04,13,02,38,4.50
2014,04,13,02,39,4.50
2014,04,13,02,40,4.50
2014,04,13,02,41,4.50
2014,04,13,02,42,4.40
2014,04,13,02,43,4.40
2014,04,13,02,44,4.40
2014,04,13,02,45,4.40
2014,04,13,02,46,4.40
2014,04,13,02,47,4.40
2014,04,13,02,48,4.40
2014,04,13,02,49,4.40
2014,04,13,02,50,4.40
2014,04,13,02,51,4.30
2014,04,13,02,52,4.30
2014,04,13,02,53,4.30
2014,04,13,02,54,4.30
2014,04,13,02,55,4.30
2014,04,13,02,56,4.30
2014,04,13,02,57,4.30
2014,04,13,02,58,4.30
2014,04,13,02,59,4.30
2014,04,13,03,00,4.30
2014,04,13,03,01,4.30
2014,04,13,03,02,4.30
2014,04,13,03,03,4.30
2014,04,13,03,04,4.30
2014,04,13,03,05,4.30
2014,04,13,03,06,4.20
2014,04,13,03,07,4.20
2014,04,13,03,08,4.20
2014,04,13,03,09,4.20
2014,04,13,03,10,4.10
2014,04,13,03,11,4.10
2014,04,13,03,12,4.10
2014,04,13,03,13,4.10
2014,04,13,03,14,4.10
2014,04,13,03,15,4.10
2014,04,13,03,16,4.10
2014,04,13,03,17,4.00
2014,04,13,03,18,4.00
2014,04,13,03,19,4.00
2014,04,13,03,20,4.00
2014,04,13,03,21,4.00
2014,04,13,03,22,4.00
2014,04,13,03,23,3.90
2014,04,13,03,24,3.90
2014,04,13,03,25,3.90
2014,04,13,03,26,3.90
2014,04,13,03,27,3.90
2014,04,13,03,28,3.90
2014,04,13,03,29,3.90
2014,04,13,03,30,3.90
2014,04,13,03,31,3.90
2014,04,13,03,32,3.90
2014,04,13,03,33,3.90
2014,04,13,03,34,3.90
2014,04,13,03,35,3.90
2014,04,13,03,36,3.90
2014,04,13,03,37,3.90
2014,04,13,03,38,3.90
2014,04,13,03,39,3.90
2014,04,13,03,40,3.90
2014,04,13,03,41,3.90
2014,04,13,03,42,3.90
2014,04,13,03,43,3.90
2014,04,13,03,44,4.00
2014,04,13,03,45,4.00
2014,04,13,03,46,4.00
2014,04,13,03,47,4.00
2014,04,13,03,48,4.10
2014,04,13,03,49,4.10
2014,04,13,03,50,4.00
2014,04,13,03,51,4.00
2014,04,13,03,52,4.00
2014,04,13,03,53,4.00
2014,04,13,03,54,4.00
2014,04,13,03,55,4.00
2014,04,13,03,56,4.00
2014,04,13,03,57,4.00
2014,04,13,03,58,4.00
2014,04,13,03,59,4.10
2014,04,13,04,00,4.00
2014,04,13,04,01,4.10
2014,04,13,04,02,4.10
2014,04,13,04,03,4.10
2014,04,13,04,04,4.10
2014,04,13,04,05,4.00
2014,04,13,04,06,4.00
2014,04,13,04,07,4.00
2014,04,13,04,08,4.00
2014,04,13,04,09,4.00
2014,04,13,04,10,3.90
2014,04,13,04,11,3.90
2014,04,13,04,12,3.90
2014,04,13,04,13,3.90
2014,04,13,04,14,3.80
2014,04,13,04,15,3.80
2014,04,13,04,16,3.80
2014,04,13,04,17,3.80
2014,04,13,04,18,3.70
2014,04,13,04,19,3.70
2014,04,13,04,20,3.70
2014,04,13,04,21,3.70
2014,04,13,04,22,3.70
2014,04,13,04,23,3.70
2014,04,13,04,24,3.70
2014,04,13,04,25,3.70
2014,04,13,04,26,3.70
2014,04,13,04,27,3.70
2014,04,13,04,28,3.70
2014,04,13,04,29,3.70
2014,04,13,04,30,3.70
2014,04,13,04,31,3.70
2014,04,13,04,32,3.70
2014,04,13,04,33,3.70
2014,04,13,04,34,3.70
2014,04,13,04,35,3.70
2014,04,13,04,36,3.70
2014,04,13,04,37,3.70
2014,04,13,04,38,3.70
2014,04,13,04,39,3.70
2014,04,13,04,40,3.60
2014,04,13,04,41,3.60
2014,04,13,04,42,3.60
2014,04,13,04,43,3.60
2014,04,13,04,44,3.60
2014,04,13,04,45,3.60
2014,04,13,04,46,3.60
2014,04,13,04,47,3.60
2014,04,13,04,48,3.60
2014,04,13,04,49,3.60
2014,04,13,04,50,3.60
2014,04,13,04,51,3.60
2014,04,13,04,52,3.60
2014,04,13,04,53,3.60
2014,04,13,04,54,3.60
2014,04,13,04,55,3.60
2014,04,13,04,56,3.60
2014,04,13,04,57,3.60
2014,04,13,04,58,3.50
2014,04,13,04,59,3.50
2014,04,13,05,00,3.50
2014,04,13,05,01,3.50
2014,04,13,05,02,3.50
2014,04,13,05,03,3.50
2014,04,13,05,04,3.50
2014,04,13,05,05,3.50
2014,04,13,05,06,3.50
2014,04,13,05,07,3.40
2014,04,13,05,08,3.40
2014,04,13,05,09,3.40
2014,04,13,05,10,3.40
2014,04,13,05,11,3.50
2014,04,13,05,12,3.50
2014,04,13,05,13,3.50
2014,04,13,05,14,3.50
2014,04,13,05,15,3.50
2014,04,13,05,16,3.50
2014,04,13,05,17,3.40
2014,04,13,05,18,3.50
2014,04,13,05,19,3.40
2014,04,13,05,20,3.40
2014,04,13,05,21,3.40
2014,04,13,05,22,3.30
2014,04,13,05,23,3.30
2014,04,13,05,24,3.30
2014,04,13,05,25,3.30
2014,04,13,05,26,3.20
2014,04,13,05,27,3.20
2014,04,13,05,28,3.20
2014,04,13,05,29,3.20
2014,04,13,05,30,3.20
2014,04,13,05,31,3.10
2014,04,13,05,32,3.10
2014,04,13,05,33,3.10
2014,04,13,05,34,3.10
2014,04,13,05,35,3.00
2014,04,13,05,36,3.00
2014,04,13,05,37,3.00
2014,04,13,05,38,3.00
2014,04,13,05,39,3.00
2014,04,13,05,40,3.00
2014,04,13,05,41,3.00
2014,04,13,05,42,3.00
2014,04,13,05,43,3.00
2014,04,13,05,44,3.00
2014,04,13,05,45,3.00
2014,04,13,05,46,3.00
2014,04,13,05,47,3.00
2014,04,13,05,48,3.00
2014,04,13,05,49,3.00
2014,04,13,05,50,2.90
2014,04,13,05,51,2.90
2014,04,13,05,52,2.90
2014,04,13,05,53,2.90
2014,04,13,05,54,2.90
2014,04,13,05,55,2.90
2014,04,13,05,56,2.90
2014,04,13,05,57,2.90
2014,04,13,05,58,2.90
2014,04,13,05,59,2.90
2014,04,13,06,00,2.90
2014,04,13,06,01,2.90
2014,04,13,06,02,2.90
2014,04,13,06,03,2.90
2014,04,13,06,04,2.90
2014,04,13,06,05,2.90
2014,04,13,06,06,2.90
2014,04,13,06,07,3.00
2014,04,13,06,08,3.00
2014,04,13,06,09,3.00
2014,04,13,06,10,3.00
2014,04,13,06,11,3.00
2014,04,13,06,12,3.00
2014,04,13,06,13,3.10
2014,04,13,06,14,3.10
2014,04,13,06,15,3.00
2014,04,13,06,16,3.00
2014,04,13,06,17,3.00
2014,04,13,06,18,3.00
2014,04,13,06,19,3.00
2014,04,13,06,20,3.00
2014,04,13,06,21,3.00
2014,04,13,06,22,3.00
2014,04,13,06,23,3.10
2014,04,13,06,24,3.10
2014,04,13,06,25,3.10
2014,04,13,06,26,3.10
2014,04,13,06,27,3.10
2014,04,13,06,28,3.10
2014,04,13,06,29,3.10
2014,04,13,06,30,3.10
2014,04,13,06,31,3.10
2014,04,13,06,32,3.10
2014,04,13,06,33,3.10
2014,04,13,06,34,3.10
2014,04,13,06,35,3.10
2014,04,13,06,36,3.10
2014,04,13,06,37,3.10
2014,04,13,06,38,3.10
2014,04,13,06,39,3.10
2014,04,13,06,40,3.10
2014,04,13,06,41,3.10
2014,04,13,06,42,3.10
2014,04,13,06,43,3.10
2014,04,13,06,44,3.10
2014,04,13,06,45,3.10
2014,04,13,06,46,3.10
2014,04,13,06,47,3.10
2014,04,13,06,48,3.10
2014,04,13,06,49,3.10
2014,04,13,06,50,3.10
2014,04,13,06,51,3.10
2014,04,13,06,52,3.10
2014,04,13,06,53,3.10
2014,04,13,06,54,3.20
2014,04,13,06,55,3.20
2014,04,13,06,56,3.20
2014,04,13,06,57,3.20
2014,04,13,06,58,3.20
2014,04,13,06,59,3.20
2014,04,13,07,00,3.20
2014,04,13,07,01,3.20
2014,04,13,07,02,3.20
2014,04,13,07,03,3.20
2014,04,13,07,04,3.20
2014,04,13,07,05,3.20
2014,04,13,07,06,3.20
2014,04,13,07,07,3.30
2014,04,13,07,08,3.30
2014,04,13,07,09,3.30
2014,04,13,07,10,3.30
2014,04,13,07,11,3.30
2014,04,13,07,12,3.30
2014,04,13,07,13,3.40
2014,04,13,07,14,3.40
2014,04,13,07,15,3.40
2014,04,13,07,16,3.50
2014,04,13,07,17,3.50
2014,04,13,07,18,3.50
2014,04,13,07,19,3.50
2014,04,13,07,20,3.60
2014,04,13,07,21,3.60
2014,04,13,07,22,3.60
2014,04,13,07,23,3.70
2014,04,13,07,24,3.80
2014,04,13,07,25,3.80
2014,04,13,07,26,3.80
2014,04,13,07,27,3.80
2014,04,13,07,28,3.90
2014,04,13,07,29,3.90
2014,04,13,07,30,3.90
2014,04,13,07,31,4.00
2014,04,13,07,32,4.00
2014,04,13,07,33,4.00
2014,04,13,07,34,4.10
2014,04,13,07,35,4.10
2014,04,13,07,36,4.20
2014,04,13,07,37,4.20
2014,04,13,07,38,4.20
2014,04,13,07,39,4.30
2014,04,13,07,40,4.30
2014,04,13,07,41,4.30
2014,04,13,07,42,4.40
2014,04,13,07,43,4.40
2014,04,13,07,44,4.50
2014,04,13,07,45,4.50
2014,04,13,07,46,4.60
2014,04,13,07,47,4.60
2014,04,13,07,48,4.60
2014,04,13,07,49,4.60
2014,04,13,07,50,4.70
2014,04,13,07,51,4.70
2014,04,13,07,52,4.80
2014,04,13,07,53,4.80
2014,04,13,07,54,4.80
2014,04,13,07,55,4.90
2014,04,13,07,56,4.90
2014,04,13,07,57,5.00
2014,04,13,07,58,5.00
2014,04,13,07,59,5.10
2014,04,13,08,00,5.20
2014,04,13,08,01,5.20
2014,04,13,08,02,5.30
2014,04,13,08,03,5.40
2014,04,13,08,04,5.50
2014,04,13,08,05,5.60
2014,04,13,08,06,5.60
2014,04,13,08,07,5.70
2014,04,13,08,08,5.80
2014,04,13,08,09,5.80
2014,04,13,08,10,5.90
2014,04,13,08,11,5.90
2014,04,13,08,12,6.00
2014,04,13,08,13,6.00
2014,04,13,08,14,6.10
2014,04,13,08,15,6.10
2014,04,13,08,16,6.10
2014,04,13,08,17,6.20
2014,04,13,08,18,6.20
2014,04,13,08,19,6.20
2014,04,13,08,20,6.30
2014,04,13,08,21,6.30
2014,04,13,08,22,6.40
2014,04,13,08,23,6.50
2014,04,13,08,24,6.50
2014,04,13,08,25,6.60
2014,04,13,08,26,6.60
2014,04,13,08,27,6.70
2014,04,13,08,28,6.80
2014,04,13,08,29,6.80
2014,04,13,08,30,6.90
2014,04,13,08,31,6.90
2014,04,13,08,32,7.00
2014,04,13,08,33,7.10
2014,04,13,08,34,7.10
2014,04,13,08,35,7.20
2014,04,13,08,36,7.20
2014,04,13,08,37,7.30
2014,04,13,08,38,7.40
2014,04,13,08,39,7.50
2014,04,13,08,40,7.50
2014,04,13,08,41,7.60
2014,04,13,08,42,7.70
2014,04,13,08,43,7.80
2014,04,13,08,44,7.90
2014,04,13,08,45,8.00
2014,04,13,08,46,8.10
2014,04,13,08,47,8.10
2014,04,13,08,48,8.20
2014,04,13,08,49,8.30
2014,04,13,08,50,8.40
2014,04,13,08,51,8.40
2014,04,13,08,52,8.50
2014,04,13,08,53,8.50
2014,04,13,08,54,8.60
2014,04,13,08,55,8.70
2014,04,13,08,56,8.70
2014,04,13,08,57,8.80
2014,04,13,08,58,8.90
2014,04,13,08,59,9.00
2014,04,13,09,00,9.10
2014,04,13,09,01,9.20
2014,04,13,09,02,9.30
2014,04,13,09,03,9.40
2014,04,13,09,04,9.50
2014,04,13,09,05,9.60
2014,04,13,09,06,9.70
2014,04,13,09,07,9.80
2014,04,13,09,08,10.00
2014,04,13,09,09,10.10
2014,04,13,09,10,10.20
2014,04,13,09,11,10.30
2014,04,13,09,12,10.40
2014,04,13,09,13,10.60
2014,04,13,09,14,10.70
2014,04,13,09,15,10.80
2014,04,13,09,16,10.90
2014,04,13,09,17,10.90
2014,04,13,09,18,11.00
2014,04,13,09,19,11.00
2014,04,13,09,20,11.10
2014,04,13,09,21,11.10
2014,04,13,09,22,11.20
2014,04,13,09,23,11.20
2014,04,13,09,24,11.30
2014,04,13,09,25,11.30
2014,04,13,09,26,11.40
2014,04,13,09,27,11.50
2014,04,13,09,28,11.60
2014,04,13,09,29,11.60
2014,04,13,09,30,11.70
2014,04,13,09,31,11.80
2014,04,13,09,32,11.80
2014,04,13,09,33,11.80
2014,04,13,09,34,11.90
2014,04,13,09,35,11.90
2014,04,13,09,36,11.90
2014,04,13,09,37,11.90
2014,04,13,09,38,11.90
2014,04,13,09,39,12.00
2014,04,13,09,40,12.00
2014,04,13,09,41,12.00
2014,04,13,09,42,12.10
2014,04,13,09,43,12.10
2014,04,13,09,44,12.10
2014,04,13,09,45,12.20
2014,04,13,09,46,12.20
2014,04,13,09,47,12.30
2014,04,13,09,48,12.40
2014,04,13,09,49,12.40
2014,04,13,09,50,12.50
2014,04,13,09,51,12.60
2014,04,13,09,52,12.70
2014,04,13,09,53,12.70
2014,04,13,09,54,12.80
2014,04,13,09,55,12.80
2014,04,13,09,56,12.80
2014,04,13,09,57,12.80
2014,04,13,09,58,12.80
2014,04,13,09,59,12.80
2014,04,13,10,00,12.80
2014,04,13,10,01,12.90
2014,04,13,10,02,12.90
2014,04,13,10,03,12.90
2014,04,13,10,04,12.90
2014,04,13,10,05,13.00
2014,04,13,10,06,13.00
2014,04,13,10,07,13.00
2014,04,13,10,08,13.00
2014,04,13,10,09,13.00
2014,04,13,10,10,13.00
2014,04,13,10,11,13.00
2014,04,13,10,12,13.10
2014,04,13,10,13,13.10
2014,04,13,10,14,13.10
2014,04,13,10,15,13.10
2014,04,13,10,16,13.10
2014,04,13,10,17,13.10
2014,04,13,10,18,13.20
2014,04,13,10,19,13.20
2014,04,13,10,20,13.20
2014,04,13,10,21,13.20
2014,04,13,10,22,13.20
2014,04,13,10,23,13.30
2014,04,13,10,24,13.30
2014,04,13,10,25,13.30
2014,04,13,10,26,13.30
2014,04,13,10,27,13.30
2014,04,13,10,28,13.20
2014,04,13,10,29,13.20
2014,04,13,10,30,13.20
2014,04,13,10,31,13.20
2014,04,13,10,32,13.20
2014,04,13,10,33,13.20
2014,04,13,10,34,13.20
2014,04,13,10,35,13.30
2014,04,13,10,36,13.30
2014,04,13,10,37,13.30
2014,04,13,10,38,13.40
2014,04,13,10,39,13.40
2014,04,13,10,40,13.50
2014,04,13,10,41,13.50
2014,04,13,10,42,13.50
2014,04,13,10,43,13.50
2014,04,13,10,44,13.50
2014,04,13,10,45,13.40
2014,04,13,10,46,13.40
2014,04,13,10,47,13.40
2014,04,13,10,48,13.40
2014,04,13,10,49,13.40
2014,04,13,10,50,13.40
2014,04,13,10,51,13.40
2014,04,13,10,52,13.40
2014,04,13,10,53,13.50
2014,04,13,10,54,13.50
2014,04,13,10,55,13.50
2014,04,13,10,56,13.50
2014,04,13,10,57,13.50
2014,04,13,10,58,13.50
2014,04,13,10,59,13.50
2014,04,13,11,00,13.50
2014,04,13,11,01,13.60
2014,04,13,11,02,13.60
2014,04,13,11,03,13.60
2014,04,13,11,04,13.60
2014,04,13,11,05,13.50
2014,04,13,11,06,13.50
2014,04,13,11,07,13.50
2014,04,13,11,08,13.50
2014,04,13,11,09,13.40
2014,04,13,11,10,13.40
2014,04,13,11,11,13.40
2014,04,13,11,12,13.30
2014,04,13,11,13,13.30
2014,04,13,11,14,13.30
2014,04,13,11,15,13.30
2014,04,13,11,16,13.30
2014,04,13,11,17,13.40
2014,04,13,11,18,13.40
2014,04,13,11,19,13.40
2014,04,13,11,20,13.50
2014,04,13,11,21,13.50
2014,04,13,11,22,13.60
2014,04,13,11,23,13.60
2014,04,13,11,24,13.70
2014,04,13,11,25,13.70
2014,04,13,11,26,13.70
2014,04,13,11,27,13.70
2014,04,13,11,28,13.70
2014,04,13,11,29,13.70
2014,04,13,11,30,13.70
2014,04,13,11,31,13.70
2014,04,13,11,32,13.70
2014,04,13,11,33,13.70
2014,04,13,11,34,13.80
2014,04,13,11,35,13.80
2014,04,13,11,36,13.80
2014,04,13,11,37,13.80
2014,04,13,11,38,13.80
2014,04,13,11,39,13.80
2014,04,13,11,40,13.80
2014,04,13,11,41,13.80
2014,04,13,11,42,13.80
2014,04,13,11,43,13.70
2014,04,13,11,44,13.70
2014,04,13,11,45,13.70
2014,04,13,11,46,13.70
2014,04,13,11,47,13.70
2014,04,13,11,48,13.70
2014,04,13,11,49,13.70
2014,04,13,11,50,13.60
2014,04,13,11,51,13.60
2014,04,13,11,52,13.60
2014,04,13,11,53,13.60
2014,04,13,11,54,13.60
2014,04,13,11,55,13.70
2014,04,13,11,56,13.70
2014,04,13,11,57,13.70
2014,04,13,11,58,13.70
2014,04,13,11,59,13.70
2014,04,13,12,00,13.70
2014,04,13,12,01,13.80
2014,04,13,12,02,13.80
2014,04,13,12,03,13.80
2014,04,13,12,04,13.90
2014,04,13,12,05,13.90
2014,04,13,12,06,14.00
2014,04,13,12,07,14.00
2014,04,13,12,08,14.10
2014,04,13,12,09,14.10
2014,04,13,12,10,14.10
2014,04,13,12,11,14.10
2014,04,13,12,12,14.20
2014,04,13,12,13,14.20
2014,04,13,12,14,14.20
2014,04,13,12,15,14.20
2014,04,13,12,16,14.20
2014,04,13,12,17,14.20
2014,04,13,12,18,14.20
2014,04,13,12,19,14.20
2014,04,13,12,20,14.20
2014,04,13,12,21,14.20
2014,04,13,12,22,14.20
2014,04,13,12,23,14.20
2014,04,13,12,24,14.20
2014,04,13,12,25,14.20
2014,04,13,12,26,14.20
2014,04,13,12,27,14.30
2014,04,13,12,28,14.30
2014,04,13,12,29,14.30
2014,04,13,12,30,14.30
2014,04,13,12,31,14.30
2014,04,13,12,32,14.30
2014,04,13,12,33,14.30
2014,04,13,12,34,14.30
2014,04,13,12,35,14.30
2014,04,13,12,36,14.30
2014,04,13,12,37,14.40
2014,04,13,12,38,14.40
2014,04,13,12,39,14.40
2014,04,13,12,40,14.40
2014,04,13,12,41,14.40
2014,04,13,12,42,14.40
2014,04,13,12,43,14.40
2014,04,13,12,44,14.40
2014,04,13,12,45,14.50
2014,04,13,12,46,14.50
2014,04,13,12,47,14.60
2014,04,13,12,48,14.70
2014,04,13,12,49,14.70
2014,04,13,12,50,14.70
2014,04,13,12,51,14.80
2014,04,13,12,52,14.80
2014,04,13,12,53,14.80
2014,04,13,12,54,14.70
2014,04,13,12,55,14.70
2014,04,13,12,56,14.80
2014,04,13,12,57,14.80
2014,04,13,12,58,14.80
2014,04,13,12,59,14.80
2014,04,13,13,00,14.80
2014,04,13,13,01,14.80
2014,04,13,13,02,14.80
2014,04,13,13,03,14.80
2014,04,13,13,04,14.80
2014,04,13,13,05,14.80
2014,04,13,13,06,14.80
2014,04,13,13,07,14.70
2014,04,13,13,08,14.70
2014,04,13,13,09,14.70
2014,04,13,13,10,14.70
2014,04,13,13,11,14.70
2014,04,13,13,12,14.70
2014,04,13,13,13,14.80
2014,04,13,13,14,14.80
2014,04,13,13,15,14.80
2014,04,13,13,16,14.90
2014,04,13,13,17,14.90
2014,04,13,13,18,15.00
2014,04,13,13,19,15.00
2014,04,13,13,20,15.00
2014,04,13,13,21,15.00
2014,04,13,13,22,15.00
2014,04,13,13,23,15.00
2014,04,13,13,24,15.10
2014,04,13,13,25,15.10
2014,04,13,13,26,15.10
2014,04,13,13,27,15.10
2014,04,13,13,28,15.10
2014,04,13,13,29,15.10
2014,04,13,13,30,15.10
2014,04,13,13,31,15.10
2014,04,13,13,32,15.10
2014,04,13,13,33,15.10
2014,04,13,13,34,15.10
2014,04,13,13,35,15.10
2014,04,13,13,36,15.10
2014,04,13,13,37,15.10
2014,04,13,13,38,15.10
2014,04,13,13,39,15.10
2014,04,13,13,40,15.10
2014,04,13,13,41,15.10
2014,04,13,13,42,15.20
2014,04,13,13,43,15.20
2014,04,13,13,44,15.30
2014,04,13,13,45,15.40
2014,04,13,13,46,15.40
2014,04,13,13,47,15.50
2014,04,13,13,48,15.50
2014,04,13,13,49,15.50
2014,04,13,13,50,15.40
2014,04,13,13,51,15.40
2014,04,13,13,52,15.40
2014,04,13,13,53,15.30
2014,04,13,13,54,15.30
2014,04,13,13,55,15.40
2014,04,13,13,56,15.30
2014,04,13,13,57,15.30
2014,04,13,13,58,15.30
2014,04,13,13,59,15.40
2014,04,13,14,00,15.40
2014,04,13,14,01,15.40
2014,04,13,14,02,15.40
2014,04,13,14,03,15.40
2014,04,13,14,04,15.40
2014,04,13,14,05,15.40
2014,04,13,14,06,15.40
2014,04,13,14,07,15.40
2014,04,13,14,08,15.40
2014,04,13,14,09,15.50
2014,04,13,14,10,15.50
2014,04,13,14,11,15.50
2014,04,13,14,12,15.40
2014,04,13,14,13,15.40
2014,04,13,14,14,15.40
2014,04,13,14,15,15.50
2014,04,13,14,16,15.50
2014,04,13,14,17,15.60
2014,04,13,14,18,15.60
2014,04,13,14,19,15.60
2014,04,13,14,20,15.60
2014,04,13,14,21,15.60
2014,04,13,14,22,15.70
2014,04,13,14,23,15.70
2014,04,13,14,24,15.70
2014,04,13,14,25,15.70
2014,04,13,14,26,15.70
2014,04,13,14,27,15.80
2014,04,13,14,28,15.80
2014,04,13,14,29,15.80
2014,04,13,14,30,15.90
2014,04,13,14,31,15.90
2014,04,13,14,32,15.90
2014,04,13,14,33,15.90
2014,04,13,14,34,16.00
2014,04,13,14,35,16.00
2014,04,13,14,36,16.10
2014,04,13,14,37,16.10
2014,04,13,14,38,16.10
2014,04,13,14,39,16.10
2014,04,13,14,40,16.10
2014,04,13,14,41,16.10
2014,04,13,14,42,16.10
2014,04,13,14,43,16.10
2014,04,13,14,44,16.10
2014,04,13,14,45,16.10
2014,04,13,14,46,16.20
2014,04,13,14,47,16.20
2014,04,13,14,48,16.20
2014,04,13,14,49,16.20
2014,04,13,14,50,16.20
2014,04,13,14,51,16.20
2014,04,13,14,52,16.30
2014,04,13,14,53,16.30
2014,04,13,14,54,16.30
2014,04,13,14,55,16.30
2014,04,13,14,56,16.30
2014,04,13,14,57,16.30
2014,04,13,14,58,16.30
2014,04,13,14,59,16.30
2014,04,13,15,00,16.30
2014,04,13,15,01,16.20
2014,04,13,15,02,16.20
2014,04,13,15,03,16.20
2014,04,13,15,04,16.20
2014,04,13,15,05,16.20
2014,04,13,15,06,16.10
2014,04,13,15,07,16.10
2014,04,13,15,08,16.10
2014,04,13,15,09,16.10
2014,04,13,15,10,16.10
2014,04,13,15,11,16.20
2014,04,13,15,12,16.20
2014,04,13,15,13,16.20
2014,04,13,15,14,16.20
2014,04,13,15,15,16.20
2014,04,13,15,16,16.20
2014,04,13,15,17,16.20
2014,04,13,15,18,16.20
2014,04,13,15,19,16.20
2014,04,13,15,20,16.20
2014,04,13,15,21,16.20
2014,04,13,15,22,16.30
2014,04,13,15,23,16.30
2014,04,13,15,24,16.20
2014,04,13,15,25,16.20
2014,04,13,15,26,16.20
2014,04,13,15,27,16.20
2014,04,13,15,28,16.30
2014,04,13,15,29,16.30
2014,04,13,15,30,16.30
2014,04,13,15,31,16.30
2014,04,13,15,32,16.40
2014,04,13,15,33,16.40
2014,04,13,15,34,16.50
2014,04,13,15,35,16.50
2014,04,13,15,36,16.50
2014,04,13,15,37,16.50
2014,04,13,15,38,16.40
2014,04,13,15,39,16.40
2014,04,13,15,40,16.40
2014,04,13,15,41,16.40
2014,04,13,15,42,16.40
2014,04,13,15,43,16.40
2014,04,13,15,44,16.30
2014,04,13,15,45,16.30
2014,04,13,15,46,16.30
2014,04,13,15,47,16.30
2014,04,13,15,48,16.30
2014,04,13,15,49,16.30
2014,04,13,15,50,16.30
2014,04,13,15,51,16.30
2014,04,13,15,52,16.40
2014,04,13,15,53,16.40
2014,04,13,15,54,16.40
2014,04,13,15,55,16.40
2014,04,13,15,56,16.40
2014,04,13,15,57,16.50
2014,04,13,15,58,16.50
2014,04,13,15,59,16.50
2014,04,13,16,00,16.60
2014,04,13,16,01,16.60
2014,04,13,16,02,16.60
2014,04,13,16,03,16.60
2014,04,13,16,04,16.60
2014,04,13,16,05,16.60
2014,04,13,16,06,16.60
2014,04,13,16,07,16.60
2014,04,13,16,08,16.60
2014,04,13,16,09,16.70
2014,04,13,16,10,16.70
2014,04,13,16,11,16.70
2014,04,13,16,12,16.60
2014,04,13,16,13,16.60
2014,04,13,16,14,16.60
2014,04,13,16,15,16.60
2014,04,13,16,16,16.60
2014,04,13,16,17,16.60
2014,04,13,16,18,16.60
2014,04,13,16,19,16.60
2014,04,13,16,20,16.60
2014,04,13,16,21,16.60
2014,04,13,16,22,16.60
2014,04,13,16,23,16.60
2014,04,13,16,24,16.60
2014,04,13,16,25,16.60
2014,04,13,16,26,16.50
2014,04,13,16,27,16.50
2014,04,13,16,28,16.40
2014,04,13,16,29,16.40
2014,04,13,16,30,16.40
2014,04,13,16,31,16.40
2014,04,13,16,32,16.40
2014,04,13,16,33,16.40
2014,04,13,16,34,16.40
2014,04,13,16,35,16.40
2014,04,13,16,36,16.50
2014,04,13,16,37,16.50
2014,04,13,16,38,16.50
2014,04,13,16,39,16.60
2014,04,13,16,40,16.60
2014,04,13,16,41,16.60
2014,04,13,16,42,16.60
2014,04,13,16,43,16.70
2014,04,13,16,44,16.70
2014,04,13,16,45,16.70
2014,04,13,16,46,16.80
2014,04,13,16,47,16.80
2014,04,13,16,48,16.80
2014,04,13,16,49,16.80
2014,04,13,16,50,16.80
2014,04,13,16,51,16.80
2014,04,13,16,52,16.80
2014,04,13,16,53,16.80
2014,04,13,16,54,16.80
2014,04,13,16,55,16.90
2014,04,13,16,56,16.90
2014,04,13,16,57,16.90
2014,04,13,16,58,16.90
2014,04,13,16,59,16.90
2014,04,13,17,00,16.90
2014,04,13,17,01,16.90
2014,04,13,17,02,16.90
2014,04,13,17,03,16.90
2014,04,13,17,04,16.80
2014,04,13,17,05,16.80
2014,04,13,17,06,16.80
2014,04,13,17,07,16.80
2014,04,13,17,08,16.80
2014,04,13,17,09,16.80
2014,04,13,17,10,16.80
2014,04,13,17,11,16.80
2014,04,13,17,12,16.80
2014,04,13,17,13,16.80
2014,04,13,17,14,16.80
2014,04,13,17,15,16.80
2014,04,13,17,16,16.80
2014,04,13,17,17,16.80
2014,04,13,17,18,16.70
2014,04,13,17,19,16.70
2014,04,13,17,20,16.70
2014,04,13,17,21,16.70
2014,04,13,17,22,16.70
2014,04,13,17,23,16.70
2014,04,13,17,24,16.70
2014,04,13,17,25,16.70
2014,04,13,17,26,16.70
2014,04,13,17,27,16.70
2014,04,13,17,28,16.70
2014,04,13,17,29,16.70
2014,04,13,17,30,16.70
2014,04,13,17,31,16.70
2014,04,13,17,32,16.70
2014,04,13,17,33,16.70
2014,04,13,17,34,16.80
2014,04,13,17,35,16.80
2014,04,13,17,36,16.80
2014,04,13,17,37,16.80
2014,04,13,17,38,16.80
2014,04,13,17,39,16.80
2014,04,13,17,40,16.80
2014,04,13,17,41,16.80
2014,04,13,17,42,16.80
2014,04,13,17,43,16.80